EW7144 Weather Reports


Display with metric or nautical units.
time (UTC)temp
F
wind
direction
speed
MPH
gust
MPH
rain 1hr
in
rain 24hr
in
rain mn
in
humidity
%
barometer
mb
20260506033405 63 357 3.0 9.0 0.00 0.01 0.01 88 1025.6
20260506032405 63 353 3.0 9.0 0.00 0.01 0.01 88 1025.7
20260506031906 63 336 5.0 10.0 0.00 0.01 0.01 88 1025.7
20260506031405 63 349 3.0 8.0 0.00 0.01 0.01 88 1025.7
20260506030406 63 325 3.0 9.0 0.00 0.01 0.01 88 1025.8
20260506025905 63 349 3.0 5.0 0.00 0.01 0.01 87 1025.8
20260506025405 63 347 2.0 6.0 0.00 0.01 0.01 87 1025.7
20260506024905 63 359 3.0 8.0 0.00 0.01 0.01 87 1025.7
20260506024405 64 327 1.0 8.0 0.00 0.01 0.01 87 1025.7
20260506023905 64 356 1.0 3.0 0.00 0.01 0.01 87 1025.7
20260506023405 64 346 1.0 3.0 0.00 0.01 0.01 87 1025.8
20260506022906 64 341 0.0 1.0 0.00 0.01 0.01 87 1025.7
20260506022405 64 351 1.0 2.0 0.00 0.01 0.01 87 1025.8
20260506021905 64 317 1.0 3.0 0.00 0.01 0.01 87 1025.8
20260506021406 64 353 1.0 3.0 0.00 0.01 0.01 87 1025.8
20260506020905 64 358 1.0 3.0 0.00 0.01 0.01 86 1025.8
20260506020405 64 353 2.0 3.0 0.00 0.01 0.01 86 1025.9
20260506015905 64 340 2.0 3.0 0.00 0.01 0.01 86 1025.9
20260506015405 64 339 1.0 3.0 0.00 0.01 0.01 85 1025.9
20260506014906 64 338 1.0 3.0 0.00 0.01 0.01 84 1025.9
20260506014405 65 332 1.0 5.0 0.00 0.01 0.01 84 1026.0
20260506013905 65 306 1.0 3.0 0.00 0.01 0.01 84 1026.0
20260506013405 65 275 1.0 3.0 0.00 0.01 0.01 83 1026.1
20260506012905 65 206 1.0 3.0 0.00 0.01 0.01 84 1026.1
20260506012405 65 292 1.0 3.0 0.00 0.01 0.01 84 1026.2
20260506011905 65 329 1.0 3.0 0.00 0.01 0.01 84 1026.2
20260506010405 64 237 1.0 2.0 0.00 0.01 0.01 85 1026.3
20260506005905 64 359 2.0 3.0 0.00 0.01 0.01 84 1026.4
20260506005406 64 353 1.0 3.0 0.00 0.01 0.01 84 1026.5
20260506004910 64 318 2.0 5.0 0.00 0.01 0.01 84 1026.5
20260506004406 64 359 1.0 5.0 0.00 0.01 0.01 84 1026.6
20260506003906 64 320 2.0 3.0 0.00 0.01 0.01 84 1026.7
20260506003407 64 294 1.0 3.0 0.00 0.01 0.01 84 1026.7
20260506002907 64 302 1.0 2.0 0.00 0.01 0.01 84 1026.7
20260506002406 64 354 1.0 3.0 0.00 0.01 0.01 84 1026.8
20260506001407 64 355 1.0 2.0 0.00 0.01 0.01 83 1026.9
20260506000905 64 359 1.0 2.0 0.00 0.01 0.01 82 1026.9
20260506000406 65 322 1.0 3.0 0.00 0.01 0.01 82 1027.0
20260505235905 64 227 0.0 2.0 0.00 0.01 0.01 83 1027.0
20260505235406 64 218 1.0 2.0 0.00 0.01 0.01 82 1027.1
20260505234406 64 219 1.0 2.0 0.00 0.01 0.01 83 1027.2
20260505233906 64 219 0.0 2.0 0.00 0.01 0.01 83 1027.2
20260505233406 64 219 0.0 2.0 0.00 0.01 0.01 83 1027.3
20260505232905 64 219 1.0 2.0 0.00 0.01 0.01 83 1027.3
20260505232405 63 218 1.0 2.0 0.00 0.01 0.01 84 1027.3
20260505230905 62 136 0.0 1.0 0.01 0.01 0.01 86 1027.4
20260505230405 62 135 0.0 1.0 0.01 0.01 0.01 86 1027.4
20260505225906 62 118 0.0 1.0 0.01 0.01 0.01 86 1027.5
20260505225406 62 118 0.0 2.0 0.01 0.01 0.01 87 1027.4
20260505224905 61 118 0.0 1.0 0.01 0.01 0.01 88 1027.4
20260505224405 60 116 0.0 1.0 0.01 0.01 0.01 88 1027.4
20260505223906 60 115 0.0 1.0 0.01 0.01 0.01 88 1027.4
20260505223405 60 116 0.0 0.0 0.01 0.01 0.01 88 1027.4
20260505222905 60 116 0.0 1.0 0.01 0.01 0.01 88 1027.5
20260505221905 58 116 0.0 2.0 0.01 0.01 0.01 87 1027.5
20260505221405 58 116 0.0 2.0 0.01 0.01 0.01 87 1027.6
20260505220905 58 129 0.0 2.0 0.00 0.00 0.00 87 1027.6
20260505215905 57 103 2.0 3.0 0.00 0.00 0.00 86 1027.7
20260505215405 57 104 1.0 2.0 0.00 0.00 0.00 86 1027.7
20260505214905 57 122 2.0 6.0 0.00 0.00 0.00 85 1027.7
20260505214405 58 91 1.0 3.0 0.00 0.00 0.00 85 1027.7
20260505213406 57 79 1.0 6.0 0.00 0.00 0.00 84 1027.7
20260505212905 57 94 2.0 6.0 0.00 0.00 0.00 84 1027.7
20260505212405 57 97 2.0 7.0 0.00 0.00 0.00 84 1027.7
20260505211905 57 102 6.0 9.0 0.00 0.00 0.00 84 1027.7
20260505211406 57 101 5.0 8.0 0.00 0.00 0.00 84 1027.6
20260505210406 58 92 3.0 7.0 0.00 0.00 0.00 84 1027.6
20260505205907 58 106 4.0 7.0 0.00 0.00 0.00 84 1027.6
20260505205406 58 97 5.0 8.0 0.00 0.00 0.00 83 1027.6
20260505204906 58 107 5.0 8.0 0.00 0.00 0.00 83 1027.5
20260505204406 58 103 5.0 9.0 0.00 0.00 0.00 84 1027.5
20260505203907 58 94 4.0 8.0 0.00 0.00 0.00 84 1027.5
20260505203406 57 104 6.0 8.0 0.00 0.00 0.00 84 1027.5
20260505202906 57 97 5.0 9.0 0.00 0.00 0.00 84 1027.4
20260505202407 57 105 5.0 8.0 0.00 0.00 0.00 84 1027.4
20260505201906 57 106 6.0 9.0 0.00 0.00 0.00 84 1027.3
20260505201406 57 107 7.0 9.0 0.00 0.00 0.00 84 1027.3
20260505200905 56 96 7.0 10.0 0.00 0.00 0.00 84 1027.3
20260505200408 56 102 6.0 10.0 0.00 0.00 0.00 85 1027.2
20260505195406 56 101 7.0 10.0 0.00 0.00 0.00 84 1027.4
20260505194906 56 102 7.0 9.0 0.00 0.00 0.00 84 1027.4
20260505194407 56 103 7.0 9.0 0.00 0.00 0.00 84 1027.4
20260505193906 56 102 7.0 12.0 0.00 0.00 0.00 84 1027.4
20260505193406 56 100 7.0 12.0 0.00 0.00 0.00 84 1027.3
20260505192907 56 98 7.0 10.0 0.00 0.00 0.00 84 1027.3
20260505191906 56 100 6.0 12.0 0.00 0.00 0.00 84 1027.3
20260505191406 56 110 7.0 10.0 0.00 0.00 0.00 84 1027.3
20260505190908 56 103 7.0 12.0 0.00 0.00 0.00 83 1027.3
20260505185906 56 104 8.0 9.0 0.00 0.00 0.00 83 1027.4
20260505185406 56 101 7.0 9.0 0.00 0.00 0.00 83 1027.5
20260505184907 56 86 6.0 10.0 0.00 0.00 0.00 82 1027.5
20260505184406 56 90 5.0 9.0 0.00 0.00 0.00 82 1027.5
20260505183906 56 96 6.0 10.0 0.00 0.00 0.00 81 1027.5
20260505182906 56 99 7.0 10.0 0.00 0.00 0.00 81 1027.5
20260505181905 56 92 6.0 9.0 0.00 0.00 0.00 81 1027.5
20260505181408 56 94 5.0 8.0 0.00 0.00 0.00 81 1027.5
20260505180906 56 94 6.0 9.0 0.00 0.00 0.00 81 1027.5
20260505180406 55 94 7.0 9.0 0.00 0.00 0.00 82 1027.5
20260505175906 55 99 8.0 10.0 0.00 0.00 0.00 82 1027.6
20260505175407 55 101 6.0 12.0 0.00 0.00 0.00 81 1027.7
20260505174906 55 95 7.0 12.0 0.00 0.00 0.00 81 1027.7
20260505174406 55 96 7.0 10.0 0.00 0.00 0.00 82 1027.6
20260505172906 55 103 7.0 9.0 0.00 0.00 0.00 84 1027.8
20260505172407 55 62 0.0 3.0 0.00 0.00 0.00 84 1027.9
20260505171906 55 108 0.0 3.0 0.00 0.00 0.00 84 1027.9
20260505171406 55 79 2.0 3.0 0.00 0.00 0.00 83 1027.9
20260505170907 55 5 1.0 6.0 0.00 0.00 0.00 82 1028.1
20260505170405 55 101 7.0 13.0 0.00 0.00 0.00 82 1027.9
20260505165906 55 93 7.0 12.0 0.00 0.00 0.00 82 1027.7
20260505164906 55 101 9.0 12.0 0.00 0.00 0.00 82 1027.9
20260505164405 55 93 8.0 10.0 0.00 0.00 0.00 82 1028.0
20260505163906 55 94 7.0 10.0 0.00 0.00 0.00 82 1028.0
20260505163406 55 94 7.0 9.0 0.00 0.00 0.00 83 1028.0
20260505162906 55 108 6.0 8.0 0.00 0.00 0.00 83 1028.1
20260505162407 55 106 2.0 7.0 0.00 0.00 0.00 83 1028.2
20260505161907 55 110 6.0 8.0 0.00 0.00 0.00 83 1028.2
20260505161406 55 103 2.0 3.0 0.00 0.00 0.00 83 1028.2
20260505160906 55 143 0.0 2.0 0.00 0.00 0.00 83 1028.3
20260505160406 56 181 1.0 5.0 0.00 0.00 0.00 82 1028.3
20260505152906 56 105 3.0 6.0 0.00 0.00 0.00 80 1028.5
20260505152405 57 102 2.0 3.0 0.00 0.00 0.00 80 1028.6
20260505151907 57 132 0.0 2.0 0.00 0.00 0.00 80 1028.6
20260505151406 56 133 1.0 2.0 0.00 0.00 0.00 80 1028.7
20260505150906 56 136 1.0 2.0 0.00 0.00 0.00 81 1028.8
20260505150406 56 136 0.0 1.0 0.00 0.00 0.00 81 1029.0
20260505140406 53 108 0.0 2.0 0.00 0.00 0.00 85 1029.6
20260505124905 53 31 0.0 1.0 0.00 0.00 0.00 85 1030.0
20260505124405 53 31 0.0 1.0 0.00 0.00 0.00 85 1029.9
20260505123906 53 32 0.0 1.0 0.00 0.00 0.00 85 1030.0
20260505123405 53 35 0.0 1.0 0.00 0.00 0.00 85 1030.0
20260505122406 53 352 0.0 1.0 0.00 0.00 0.00 84 1030.0
20260505121906 53 346 0.0 1.0 0.00 0.00 0.00 84 1030.0
20260505120908 53 66 1.0 1.0 0.00 0.00 0.00 85 1029.9
20260505120406 53 66 0.0 1.0 0.00 0.00 0.00 86 1029.9
20260505115905 53 66 0.0 1.0 0.00 0.01 0.00 86 1029.9
20260505114905 52 51 0.0 1.0 0.00 0.01 0.00 86 1030.1
20260505114405 52 48 0.0 0.0 0.00 0.01 0.00 86 1030.0
20260505112407 52 102 1.0 3.0 0.00 0.01 0.00 86 1030.1
20260505111906 52 46 0.0 1.0 0.00 0.01 0.00 86 1030.1
20260505111405 52 46 0.0 1.0 0.00 0.01 0.00 86 1030.2
20260505110405 52 46 0.0 1.0 0.00 0.01 0.00 86 1030.2
20260505101907 52 146 0.0 0.0 0.00 0.01 0.00 84 1030.5
20260505101405 53 147 0.0 0.0 0.00 0.01 0.00 84 1030.6
20260505100906 53 147 0.0 1.0 0.00 0.01 0.00 84 1030.6
20260505095905 53 147 0.0 1.0 0.00 0.01 0.00 84 1030.5
20260505095407 53 146 0.0 1.0 0.00 0.01 0.00 84 1030.5
20260505094906 53 147 0.0 1.0 0.00 0.01 0.00 85 1030.5
20260505094405 53 145 1.0 2.0 0.00 0.01 0.00 85 1030.5
20260505093905 52 152 1.0 5.0 0.00 0.01 0.00 86 1030.5
20260505093405 51 144 1.0 3.0 0.00 0.01 0.00 87 1030.6
20260505092905 51 112 2.0 5.0 0.00 0.01 0.00 87 1030.6
20260505092405 51 141 3.0 5.0 0.00 0.01 0.00 87 1030.6
20260505091905 50 139 0.0 3.0 0.00 0.01 0.00 87 1030.7
20260505091405 50 134 2.0 3.0 0.00 0.01 0.00 87 1030.6
20260505090905 50 154 0.0 1.0 0.00 0.01 0.00 86 1030.7
20260505090406 50 152 0.0 2.0 0.00 0.01 0.00 86 1030.7
20260505085407 51 18 3.0 9.0 0.00 0.01 0.00 85 1030.6
20260505084906 51 6 3.0 5.0 0.00 0.01 0.00 85 1030.4
20260505084406 52 10 0.0 1.0 0.00 0.01 0.00 84 1030.2
20260505083906 52 133 0.0 1.0 0.00 0.01 0.00 84 1030.3
20260505083406 52 133 0.0 1.0 0.00 0.01 0.00 84 1030.2
20260505082406 52 133 0.0 1.0 0.00 0.01 0.00 85 1030.5
20260505081907 52 131 0.0 1.0 0.00 0.01 0.00 84 1030.5
20260505081405 52 129 0.0 1.0 0.00 0.01 0.00 84 1030.5
20260505080906 52 129 0.0 2.0 0.00 0.01 0.00 84 1030.6
20260505075405 53 216 0.0 1.0 0.00 0.01 0.00 83 1030.7
20260505074905 53 216 0.0 1.0 0.00 0.01 0.00 83 1030.5
20260505074405 53 216 0.0 1.0 0.00 0.01 0.00 83 1030.5
20260505073905 53 216 0.0 2.0 0.00 0.01 0.00 83 1030.7
20260505073405 53 216 0.0 3.0 0.00 0.01 0.00 83 1030.8
20260505072905 53 216 0.0 2.0 0.00 0.01 0.00 83 1030.7
20260505071405 53 226 1.0 2.0 0.00 0.01 0.00 82 1030.7
20260505070905 54 206 1.0 3.0 0.00 0.01 0.00 82 1030.7
20260505070405 54 332 0.0 1.0 0.00 0.01 0.00 81 1030.7
20260505065905 54 355 0.0 1.0 0.00 0.01 0.00 81 1030.7
20260505065405 54 345 1.0 1.0 0.00 0.01 0.00 81 1030.7
20260505064906 55 351 0.0 2.0 0.00 0.01 0.00 81 1030.7
20260505063906 55 339 0.0 1.0 0.00 0.01 0.00 81 1030.6
20260505063406 55 344 0.0 2.0 0.00 0.01 0.00 81 1030.6
20260505061905 55 350 0.0 1.0 0.00 0.01 0.00 80 1030.6
20260505060905 55 349 0.0 3.0 0.00 0.01 0.00 79 1030.6
20260505055905 56 241 0.0 3.0 0.00 0.01 0.00 79 1030.5
20260505055405 56 359 1.0 3.0 0.00 0.01 0.00 78 1030.5
20260505054905 56 349 1.0 3.0 0.00 0.01 0.00 78 1030.5
20260505054405 56 349 2.0 5.0 0.00 0.01 0.00 77 1030.5
20260505053905 57 0 2.0 6.0 0.00 0.01 0.00 77 1030.4
20260505053405 57 345 2.0 6.0 0.00 0.01 0.00 77 1030.4
20260505052906 57 341 3.0 7.0 0.00 0.01 0.00 76 1030.4
20260505051906 58 353 3.0 9.0 0.00 0.01 0.00 75 1030.4
20260505051405 59 3 3.0 8.0 0.00 0.01 0.00 75 1030.4
20260505050405 59 340 4.0 8.0 0.00 0.01 0.00 75 1030.4
20260505041406 61 349 5.0 12.0 0.00 0.01 0.00 72 1030.5
20260505040905 61 347 4.0 9.0 0.00 0.01 0.00 72 1030.4
20260505040406 61 348 4.0 9.0 0.00 0.01 0.00 72 1030.4
20260505035906 61 333 4.0 10.0 0.00 0.01 0.00 72 1030.5
20260505035405 61 338 3.0 10.0 0.00 0.01 0.00 71 1030.4
20260505034905 61 306 4.0 9.0 0.00 0.01 0.00 71 1030.5
20260505034405 61 342 2.0 6.0 0.00 0.01 0.00 71 1030.5
20260505033905 61 336 2.0 8.0 0.00 0.01 0.00 72 1030.5